Location: Newark
(49.3000°N, 9.4667°E)
Time: 01:46:05
(UTC+00:00)

S-56A Canister/Altair - Pass Details

Date: 24 May 2019
Orbit: 633 x 2499 km, 38.9° (Epoch: 25 June)

Event Time Altitude Azimuth Distance (km) Brightness Sun altitude
Exits shadow 23:21:16 14° 127° (SE) 2,611 9.9 -19.8°
Drops below altitude 10° 23:23:33 10° 110° (ESE) 3,067 10.4 -19.8°
Sets 23:28:30 0° 89° (E) 4,471 11.5 -19.8°
